Location: Unspecified
(43.4680°N, 87.1740°E)
Time: 04:19:43
(UTC+00:00)

FALCON 9 DEB - Pass Details

Date: 17 April 2021
Orbit: 364 x 381 km, 53.0° (Epoch: 17 May)

Event Time Altitude Azimuth Distance (km) Brightness Sun altitude
Exits shadow 21:31:19 16° 323° (NW) 1,091 5.1 -19.2°
Maximum altitude 21:33:27 38° 28° (NNE) 587 4.2 -18.8°
Drops below altitude 10° 21:36:23 10° 99° (E) 1,385 6.3 -18.4°
Sets 21:38:31 0° 108° (ESE) 2,239 7.3 -18.1°
